{"data":{"norad_id":59405,"epoch":"2026-09-21T16:18:54.876384Z","epoch_age_seconds":62927,"freshness":"FRESH","line1":"1 59405U 24064H   26264.67980181  .00000706  00000+0  35177-4 0  9998","line2":"2 59405  43.0052  29.0029 0001641 279.2247  80.8419 15.27580770139203","mean_motion":15.2758077,"eccentricity":0.0001641,"inclination_deg":43.0052,"raan_deg":29.0029,"arg_perigee_deg":279.2247,"mean_anomaly_deg":80.8419,"bstar":3.5177e-5,"rev_number":13920,"period_min":94.266701197083,"perigee_km":481.92087012361,"apogee_km":484.17271064362,"semimajor_km":6861.1837903836,"source":"CELESTRAK","updated_at":"2026-09-22T09:00:48.914702Z"}}